Date String (YYYY-MM-DD hh:mm:ss) UTC,Instrument flags,Ambient pressure (hPa),Sample flow (lpm),Bypass flow (lpm),Sample temperature (°C),Ambient temperature (°C),ASC tube jacket temperature (°C),LED temperature (°C),Box temperature (°C),Sample RH (%),Span deviation,Mass concentration (μg/m³),Mass concentration (μg/m³),Mass concentration (μg/m³)
DateTimeUTC,F1_M11,P_M11,Q1_M11,Q2_M11,T1_M11,T2_M11,T3_M11,T4_M11,T5_M11,U1_M11,ZSPAN_M11,X2_M11,X0_M11,X1_M11
2022-02-17 15:00:00,,0829.3,4.99,0.00,22.1,21.4,00.0,31.2,23.7,07.5,0000.0,0003.47,0004.31,0003.35
2022-02-17 15:01:00,,0829.3,5.00,0.00,22.0,21.3,00.0,31.2,23.6,07.5,0000.0,0003.44,0004.23,0003.32
2022-02-17 15:02:00,,0829.3,5.00,0.00,22.0,21.2,00.0,31.2,23.5,07.5,0000.0,0003.41,0004.15,0003.30
2022-02-17 15:03:00,,0829.3,5.01,0.00,22.0,21.3,00.0,31.1,23.5,07.5,0000.0,0003.37,0003.96,0003.27
2022-02-17 15:04:00,,0829.3,4.99,0.00,22.1,22.0,00.0,31.2,23.8,07.4,0000.0,0003.34,0003.91,0003.25
2022-02-17 15:05:00,,0829.4,5.00,0.00,22.2,22.8,00.0,31.2,24.1,07.4,0000.0,0003.31,0003.89,0003.22
2022-02-17 15:06:00,,0829.4,4.99,0.00,22.3,22.8,00.0,31.2,24.2,07.4,0000.0,0003.27,0003.74,0003.19
2022-02-17 15:07:00,,0829.4,5.00,0.00,22.3,22.5,00.0,31.2,24.1,07.4,0000.0,0003.24,0003.70,0003.17
2022-02-17 15:08:00,,0829.4,5.01,0.00,22.2,22.2,00.0,31.2,24.0,07.4,0000.0,0003.21,0003.67,0003.14
2022-02-17 15:09:00,,0829.4,5.00,0.00,22.2,21.9,00.0,31.2,23.9,07.5,0000.0,0003.19,0003.65,0003.13
2022-02-17 15:10:00,,0829.3,4.99,0.00,22.1,21.7,00.0,31.2,23.8,07.6,0000.0,0003.21,0003.71,0003.14
2022-02-17 15:11:00,,0829.3,5.00,0.00,22.1,21.6,00.0,31.2,23.7,07.6,0000.0,0003.22,0003.70,0003.16
2022-02-17 15:12:00,,0829.3,5.01,0.00,22.0,21.4,00.0,31.2,23.6,07.7,0000.0,0003.24,0003.71,0003.18
2022-02-17 15:13:00,,0829.4,5.00,0.00,22.0,21.3,00.0,31.1,23.5,07.7,0000.0,0003.26,0003.77,0003.19
2022-02-17 15:14:00,,0829.4,4.99,0.00,21.9,21.3,00.0,31.1,23.5,07.8,0000.0,0003.28,0003.82,0003.20
2022-02-17 15:15:00,,0829.4,5.01,0.00,22.0,22.0,00.0,31.1,23.8,07.8,0000.0,0003.29,0003.85,0003.22
2022-02-17 15:16:00,,0829.4,5.00,0.00,22.2,22.8,00.0,31.2,24.0,07.8,0000.0,0003.31,0003.81,0003.24
2022-02-17 15:17:00,,0829.4,5.00,0.00,22.3,23.0,00.0,31.2,24.2,07.8,0000.0,0003.33,0003.84,0003.26
2022-02-17 15:18:00,,0829.3,5.01,0.00,22.3,22.7,00.0,31.2,24.1,08.0,0000.0,0003.34,0003.83,0003.27
2022-02-17 15:19:00,,0829.3,5.00,0.00,22.3,22.4,00.0,31.2,24.0,08.1,0000.0,0003.36,0003.79,0003.29
2022-02-17 15:20:00,,0829.3,5.00,0.00,22.2,22.2,00.0,31.2,23.9,08.2,0000.0,0003.38,0003.79,0003.32
2022-02-17 15:21:00,,0829.3,5.00,0.00,22.2,21.9,00.0,31.2,23.8,08.3,0000.0,0003.38,0003.77,0003.32
2022-02-17 15:22:00,,0829.3,5.00,0.00,22.1,21.7,00.0,31.2,23.8,08.4,0000.0,0003.41,0003.90,0003.34
2022-02-17 15:23:00,,0829.2,4.99,0.00,22.1,21.6,00.0,31.2,23.7,08.5,0000.0,0003.43,0003.98,0003.35
2022-02-17 15:24:00,,0829.4,5.00,0.00,22.0,21.4,00.0,31.2,23.6,08.6,0000.0,0003.44,0004.02,0003.37
2022-02-17 15:25:00,,0829.2,5.01,0.00,22.0,21.3,00.0,31.1,23.6,08.6,0000.0,0003.46,0004.17,0003.38
2022-02-17 15:26:00,,0829.2,5.00,0.00,22.0,21.6,00.0,31.1,23.6,08.5,0000.0,0003.50,0004.28,0003.39
2022-02-17 15:27:00,,0829.2,4.99,0.00,22.1,22.5,00.0,31.2,23.9,08.5,0000.0,0003.52,0004.32,0003.41
2022-02-17 15:28:00,,0829.2,5.00,0.00,22.3,23.3,00.0,31.2,24.2,08.5,0000.0,0003.54,0004.33,0003.43
2022-02-17 15:29:00,,0829.2,5.00,0.00,22.4,23.3,00.0,31.2,24.3,08.5,0000.0,0003.58,0004.40,0003.47
2022-02-17 15:30:00,,0829.2,5.01,0.00,22.4,22.9,00.0,31.3,24.3,08.6,0000.0,0003.61,0004.47,0003.50
2022-02-17 15:31:00,,0829.2,5.00,0.00,22.4,22.6,00.0,31.3,24.2,08.6,0000.0,0003.65,0004.54,0003.53
2022-02-17 15:32:00,,0829.2,4.99,0.00,22.3,22.3,00.0,31.3,24.1,08.7,0000.0,0003.72,0004.70,0003.59
2022-02-17 15:33:00,,0829.2,5.00,0.00,22.3,22.1,00.0,31.3,24.0,08.8,0000.0,0003.78,0004.78,0003.64
2022-02-17 15:34:00,,0829.2,5.01,0.00,22.3,21.9,00.0,31.3,24.0,09.1,0000.0,0003.83,0004.79,0003.69
2022-02-17 15:35:00,,0829.2,4.99,0.00,22.2,21.8,00.0,31.2,23.9,09.3,0000.0,0003.87,0004.85,0003.74
2022-02-17 15:36:00,,0829.2,4.99,0.00,22.2,21.6,00.0,31.2,23.9,09.5,0000.0,0003.92,0004.80,0003.79
2022-02-17 15:37:00,,0829.2,5.00,0.00,22.2,21.5,00.0,31.2,23.8,09.7,0000.0,0003.95,0004.83,0003.83
2022-02-17 15:38:00,,0829.2,5.01,0.00,22.1,21.4,00.0,31.2,23.8,09.9,0000.0,0003.99,0004.86,0003.88
2022-02-17 15:39:00,,0829.2,5.00,0.00,22.1,21.4,00.0,31.2,23.7,10.0,0000.0,0004.05,0004.99,0003.92
2022-02-17 15:40:00,,0829.2,5.00,0.00,22.1,21.9,00.0,31.2,23.8,10.2,0000.0,0004.11,0005.11,0003.97
2022-02-17 15:41:00,,0829.2,4.99,0.00,22.2,22.9,00.0,31.2,24.2,10.2,0000.0,0004.17,0005.17,0004.03
2022-02-17 15:42:00,,0829.2,5.00,0.00,22.4,23.3,00.0,31.3,24.4,10.2,0000.0,0004.22,0005.28,0004.08
2022-02-17 15:43:00,,0829.2,5.01,0.00,22.4,23.1,00.0,31.3,24.3,10.3,0000.0,0004.29,0005.44,0004.13
2022-02-17 15:44:00,,0829.2,5.00,0.00,22.4,22.7,00.0,31.3,24.2,10.4,0000.0,0004.34,0005.46,0004.18
2022-02-17 15:45:00,,0829.2,5.01,0.00,22.4,22.4,00.0,31.3,24.1,10.4,0000.0,0004.39,0005.51,0004.24
2022-02-17 15:46:00,,0829.2,4.99,0.00,22.3,22.2,00.0,31.3,24.0,10.5,0000.0,0004.46,0005.58,0004.30
2022-02-17 15:47:00,,0829.2,4.99,0.00,22.3,22.0,00.0,31.3,23.9,10.5,0000.0,0004.51,0005.65,0004.35
2022-02-17 15:48:00,,0829.2,4.99,0.00,22.2,21.8,00.0,31.3,23.8,10.5,0000.0,0004.55,0005.60,0004.40
2022-02-17 15:49:00,,0829.2,5.00,0.00,22.2,21.7,00.0,31.3,23.8,10.5,0000.0,0004.60,0005.68,0004.45
2022-02-17 15:50:00,,0829.2,5.01,0.00,22.1,21.6,00.0,31.3,23.8,10.6,0000.0,0004.64,0005.72,0004.50
2022-02-17 15:51:00,,0829.2,4.99,0.00,22.1,21.5,00.0,31.2,23.7,10.6,0000.0,0004.66,0005.68,0004.54
2022-02-17 15:52:00,,0829.2,5.00,0.00,22.1,21.4,00.0,31.2,23.6,10.6,0000.0,0004.72,0005.85,0004.58
2022-02-17 15:53:00,,0829.2,4.99,0.00,22.0,21.3,00.0,31.2,23.6,10.6,0000.0,0004.77,0005.92,0004.62
2022-02-17 15:54:00,,0829.2,4.99,0.00,22.0,21.3,00.0,31.2,23.6,10.6,0000.0,0004.77,0005.81,0004.66
2022-02-17 15:55:00,,0829.2,5.00,0.00,22.0,21.9,00.0,31.2,23.7,10.6,0000.0,0004.83,0005.90,0004.72
2022-02-17 15:56:00,,0829.2,5.02,0.00,22.2,22.9,00.0,31.2,24.0,10.5,0000.0,0004.91,0006.07,0004.80
2022-02-17 15:57:00,,0829.2,4.98,0.00,22.3,23.7,00.0,31.3,24.4,10.4,0000.0,0005.00,0006.31,0004.85
2022-02-17 15:58:00,,0829.1,5.00,0.00,22.4,23.5,00.0,31.3,24.4,10.4,0000.0,0005.08,0006.51,0004.92
2022-02-17 15:59:00,,0829.1,5.01,0.00,22.4,23.1,00.0,31.3,24.3,10.3,0000.0,0005.21,0006.83,0005.02
